Location: St. Louis
(38.6270°N, 90.1994°W)
Time: 10:47:00
(UTC-06:00)

Tiros 1 despin weight - Pass Details

Date: 02 December 2021
Orbit: 592 x 641 km, 48.2° (Epoch: 25 January)

Event Time Altitude Azimuth Distance (km) Brightness Sun altitude
Rises 17:01:09 0° 298° (WNW) 2,824 ? -4.6°
Reaches altitude 10° 17:03:47 10° 312° (NW) 1,922 ? -5.1°
Maximum altitude 17:07:25 25° 8° (N) 1,219 ? -5.7°
Drops below altitude 10° 17:11:05 10° 64° (ENE) 1,929 ? -6.4°
Enters shadow 17:11:36 - 68° (ENE) 2,098 ? -6.5°
